Location: Cosy Dell
(34.2789°N, 117.4537°W)
Time: 20:15:07
(UTC+00:00)

Tsikada Rocket - Pass Details

Date: 14 July 2020
Orbit: 959 x 1008 km, 82.9° (Epoch: 13 August)

Event Time Altitude Azimuth Distance (km) Brightness Sun altitude
Rises 10:18:31 0° 349° (N) 3,743 7.7 -24.7°
Reaches altitude 10° 10:21:05 10° 347° (NNW) 2,790 6.9 -24.3°
Maximum altitude 10:27:24 64° 268° (W) 1,110 4.0 -23.5°
Enters shadow 10:29:06 47° 211° (SSW) 1,303 4.2 -23.3°
